EW7670 Weather Reports


Display with metric or nautical units.
time (UTC)temp
F
wind
direction
speed
MPH
gust
MPH
rain 1hr
in
rain 24hr
in
rain mn
in
humidity
%
barometer
mb
20260507203040 64 329 2.0 6.0 0.00 0.46 0.46 95 1005.1
20260507174646 70 247 18.0 23.0 0.00 0.20 0.20 94 1006.8
20260507173126 70 251 16.0 22.0 0.00 0.20 0.20 94 1007.1
20260507171626 70 222 14.0 23.0 0.00 0.20 0.20 94 1007.5
20260507163102 71 204 13.0 25.0 0.01 0.20 0.20 93 1007.9
20260507154512 70 194 17.0 27.0 0.01 0.20 0.20 94 1007.9
20260507153137 70 209 16.0 24.0 0.00 0.19 0.19 93 1007.6
20260507140115 69 197 20.0 30.0 0.02 0.19 0.19 96 1008.2
20260507134641 69 196 17.0 31.0 0.05 0.19 0.19 95 1008.5
20260507124507 69 217 17.0 27.0 0.08 0.14 0.14 96 1009.7
20260507114616 70 211 17.0 23.0 0.00 0.06 0.06 94 1010.1
20260507103111 69 223 15.0 25.0 0.00 0.06 0.06 93 1009.4
20260507094656 69 225 14.0 22.0 0.01 0.06 0.06 95 1009.0
20260507070126 70 213 16.0 21.0 0.00 0.00 0.00 92 1010.8
20260507061629 70 208 13.0 20.0 0.00 0.00 0.00 92 1010.6
20260507060104 70 217 12.0 20.0 0.00 0.00 0.00 93 1010.6
20260507054552 70 206 11.0 20.0 0.00 0.00 0.00 93 1010.8
20260507053057 70 208 14.0 22.0 0.00 0.00 0.00 93 1010.8
20260507051548 70 195 13.0 25.0 0.00 0.00 0.00 93 1011.2
20260507044540 70 209 15.0 22.0 0.00 0.00 0.00 94 1011.1
20260507043035 70 216 15.0 23.0 0.00 0.00 0.00 94 1011.4
20260507041534 70 210 15.0 21.0 0.00 0.00 0.00 94 1011.5
20260507040034 70 196 13.0 21.0 0.00 0.00 0.00 94 1011.6
20260507034610 70 227 11.0 20.0 0.00 0.00 0.00 95 1011.8
20260507024542 70 230 13.0 22.0 0.00 0.00 0.00 95 1011.4
20260507014646 70 203 13.0 22.0 0.00 0.00 0.00 94 1011.8
20260507013117 70 229 12.0 24.0 0.00 0.00 0.00 94 1011.7